• în România
  • Lista ţărilor
  • Pe 7 zile
  • Temperatura apei
  • Hartă satelitară
  • Meteo pe hartă
  • Widget-uri
  • user-avatar
    Intrare

    Meteo pe oră la Saurimo

    Astăzi, 19 Ianuarie, Joi

    Timp Temperatura Precipitaţii Vânt Presiune Umiditate
    00:00 +22°C° 0,3 mm 1 m/s 669 mmHg 95%
    01:00 +22°C° 0 mm 1 m/s 669 mmHg 95%
    02:00 +22°C° 0,4 mm 1 m/s 669 mmHg 94%
    03:00 +21°C° 0,4 mm 1 m/s 669 mmHg 93%
    04:00 +21°C° 0,4 mm 1 m/s 669 mmHg 93%
    05:00 +22°C° 0,3 mm 1 m/s 670 mmHg 92%
    06:00 +22°C° 0,3 mm 1 m/s 670 mmHg 91%
    07:00 +22°C° 0 mm 1 m/s 671 mmHg 90%
    08:00 +24°C° 0,1 mm 1 m/s 671 mmHg 84%
    09:00 +25°C° 0,1 mm 2 m/s 671 mmHg 78%
    10:00 +26°C° 0,1 mm 2 m/s 672 mmHg 71%
    11:00 +27°C° 0,1 mm 2 m/s 671 mmHg 66%
    12:00 +28°C° 0,1 mm 2 m/s 671 mmHg 60%
    13:00 +29°C° 0,1 mm 2 m/s 671 mmHg 55%
    14:00 +29°C° 0,2 mm 2 m/s 671 mmHg 56%
    15:00 +29°C° 0,2 mm 2 m/s 670 mmHg 58%
    16:00 +29°C° 0,2 mm 1 m/s 670 mmHg 59%
    17:00 +27°C° 0 mm 1 m/s 670 mmHg 64%
    18:00 +25°C° 0 mm 1 m/s 669 mmHg 70%
    19:00 +23°C° 0 mm 1 m/s 669 mmHg 75%
    20:00 +23°C° 0,1 mm 1 m/s 670 mmHg 76%
    21:00 +23°C° 0,1 mm 1 m/s 670 mmHg 77%
    22:00 +23°C° 0,1 mm 1 m/s 670 mmHg 79%
    23:00 +22°C° 0,4 mm 1 m/s 670 mmHg 82%

    Mâine, 20 Ianuarie, Vineri

    Timp Temperatura Precipitaţii Vânt Presiune Umiditate
    00:00 +21°C° 0,4 mm 1 m/s 670 mmHg 86%
    01:00 +21°C° 0,4 mm 1 m/s 670 mmHg 90%
    02:00 +21°C° 0,5 mm 1 m/s 670 mmHg 91%
    03:00 +21°C° 0,5 mm 1 m/s 670 mmHg 92%
    04:00 +21°C° 0,5 mm 1 m/s 670 mmHg 94%
    05:00 +21°C° 0,1 mm 1 m/s 670 mmHg 93%
    06:00 +21°C° 0,1 mm 1 m/s 670 mmHg 93%
    07:00 +22°C° 0,1 mm 1 m/s 670 mmHg 92%
    08:00 +24°C° 0 mm 2 m/s 671 mmHg 81%
    09:00 +27°C° 0 mm 2 m/s 671 mmHg 69%
    10:00 +29°C° 0 mm 2 m/s 672 mmHg 57%
    11:00 +30°C° 0 mm 2 m/s 671 mmHg 52%
    12:00 +31°C° 0 mm 2 m/s 671 mmHg 47%
    13:00 +32°C° 0 mm 2 m/s 670 mmHg 42%
    14:00 +31°C° 0,1 mm 2 m/s 670 mmHg 48%
    15:00 +30°C° 0,1 mm 2 m/s 669 mmHg 54%
    16:00 +29°C° 0,1 mm 2 m/s 668 mmHg 59%
    17:00 +27°C° 0 mm 2 m/s 668 mmHg 65%
    18:00 +25°C° 0 mm 2 m/s 668 mmHg 72%
    19:00 +23°C° 0 mm 1 m/s 668 mmHg 78%
    20:00 +23°C° 0,1 mm 1 m/s 668 mmHg 79%
    21:00 +22°C° 0,1 mm 1 m/s 669 mmHg 80%
    22:00 +22°C° 0,1 mm 1 m/s 669 mmHg 82%
    23:00 +22°C° 0,1 mm 1 m/s 669 mmHg 83%

    Poimâine, 21 Ianuarie, Sâmbătă

    Timp Temperatura Precipitaţii Vânt Presiune Umiditate
    00:00 +21°C° 0,1 mm 1 m/s 669 mmHg 84%
    01:00 +21°C° 0,1 mm 1 m/s 668 mmHg 86%
    02:00 +21°C° 0 mm 1 m/s 668 mmHg 87%
    03:00 +21°C° 0 mm 1 m/s 668 mmHg 89%
    04:00 +21°C° 0 mm 1 m/s 668 mmHg 90%
    05:00 +21°C° 0 mm 1 m/s 668 mmHg 89%
    06:00 +22°C° 0 mm 1 m/s 669 mmHg 87%
    07:00 +22°C° 0 mm 1 m/s 670 mmHg 86%
    08:00 +24°C° 0,1 mm 2 m/s 670 mmHg 77%
    09:00 +26°C° 0,1 mm 2 m/s 671 mmHg 67%
    10:00 +28°C° 0,1 mm 2 m/s 671 mmHg 58%
    11:00 +29°C° 0,1 mm 2 m/s 671 mmHg 54%
    12:00 +30°C° 0,1 mm 2 m/s 670 mmHg 50%
    13:00 +31°C° 0,1 mm 2 m/s 670 mmHg 46%
    14:00 +31°C° 0,3 mm 2 m/s 669 mmHg 51%
    15:00 +30°C° 0,3 mm 2 m/s 669 mmHg 56%
    16:00 +30°C° 0,3 mm 1 m/s 668 mmHg 60%
    17:00 +28°C° 0,1 mm 1 m/s 668 mmHg 67%
    18:00 +26°C° 0,1 mm 1 m/s 668 mmHg 73%
    19:00 +24°C° 0,1 mm 1 m/s 668 mmHg 79%
    20:00 +23°C° 0 mm 1 m/s 669 mmHg 81%
    21:00 +23°C° 0 mm 1 m/s 669 mmHg 83%
    22:00 +22°C° 0 mm 1 m/s 669 mmHg 84%
    23:00 +22°C° 0 mm 1 m/s 669 mmHg 85%

    22 Ianuarie, Duminică

    Timp Temperatura Precipitaţii Vânt Presiune Umiditate
    00:00 +22°C° 0 mm 1 m/s 668 mmHg 87%
    01:00 +21°C° 0 mm 1 m/s 668 mmHg 88%
    02:00 +21°C° 0 mm 1 m/s 668 mmHg 88%
    03:00 +21°C° 0 mm 1 m/s 668 mmHg 88%
    04:00 +20°C° 0 mm 1 m/s 668 mmHg 89%
    05:00 +20°C° 0 mm 2 m/s 668 mmHg 86%
    06:00 +21°C° 0 mm 2 m/s 669 mmHg 83%
    07:00 +21°C° 0 mm 2 m/s 670 mmHg 81%
    08:00 +25°C° 0 mm 2 m/s 670 mmHg 71%
    09:00 +27°C° 0 mm 1 m/s 671 mmHg 62%
    10:00 +30°C° 0 mm 1 m/s 672 mmHg 52%
    11:00 +30°C° 0,2 mm 1 m/s 671 mmHg 51%
    12:00 +31°C° 0,2 mm 2 m/s 670 mmHg 50%
    13:00 +31°C° 0,2 mm 2 m/s 670 mmHg 48%
    14:00 +30°C° 1,3 mm 1 m/s 669 mmHg 59%
    15:00 +28°C° 1,3 mm 1 m/s 669 mmHg 69%
    16:00 +27°C° 1,3 mm 1 m/s 669 mmHg 80%
    17:00 +25°C° 0,8 mm 1 m/s 669 mmHg 84%
    18:00 +24°C° 0,8 mm 1 m/s 669 mmHg 89%
    19:00 +23°C° 0,8 mm 1 m/s 670 mmHg 93%
    20:00 +22°C° 0,2 mm 1 m/s 670 mmHg 94%
    21:00 +22°C° 0,2 mm 1 m/s 670 mmHg 94%
    22:00 +22°C° 0,2 mm 1 m/s 670 mmHg 95%
    23:00 +21°C° 0,1 mm 1 m/s 670 mmHg 96%

    23 Ianuarie, Luni

    Timp Temperatura Precipitaţii Vânt Presiune Umiditate
    00:00 +21°C° 0,1 mm 1 m/s 669 mmHg 97%
    01:00 +21°C° 0,1 mm 1 m/s 669 mmHg 97%
    02:00 +21°C° 0 mm 1 m/s 669 mmHg 97%
    03:00 +21°C° 0 mm 1 m/s 669 mmHg 97%
    04:00 +21°C° 0 mm 1 m/s 669 mmHg 97%
    05:00 +21°C° 0,1 mm 1 m/s 670 mmHg 96%
    06:00 +21°C° 0,1 mm 1 m/s 670 mmHg 94%
    07:00 +22°C° 0,1 mm 1 m/s 671 mmHg 92%
    08:00 +24°C° 0,1 mm 1 m/s 672 mmHg 82%
    09:00 +26°C° 0,1 mm 1 m/s 672 mmHg 71%
    10:00 +27°C° 0,1 mm 2 m/s 672 mmHg 61%
    11:00 +29°C° 0 mm 2 m/s 672 mmHg 55%
    12:00 +30°C° 0 mm 2 m/s 671 mmHg 49%
    13:00 +31°C° 0 mm 3 m/s 671 mmHg 43%
    14:00 +31°C° 0 mm 3 m/s 670 mmHg 44%
    15:00 +30°C° 0 mm 3 m/s 670 mmHg 46%
    16:00 +30°C° 0 mm 3 m/s 669 mmHg 48%
    17:00 +28°C° 0 mm 2 m/s 669 mmHg 55%
    18:00 +26°C° 0 mm 2 m/s 669 mmHg 62%
    19:00 +24°C° 0 mm 1 m/s 670 mmHg 69%
    20:00 +24°C° 0 mm 1 m/s 670 mmHg 69%
    21:00 +23°C° 0 mm 1 m/s 671 mmHg 69%
    22:00 +23°C° 0 mm 1 m/s 671 mmHg 69%
    23:00 +22°C° 0 mm 1 m/s 671 mmHg 71%

    24 Ianuarie, Marţi

    Timp Temperatura Precipitaţii Vânt Presiune Umiditate
    00:00 +22°C° 0 mm 1 m/s 670 mmHg 74%
    01:00 +21°C° 0 mm 1 m/s 670 mmHg 76%
    02:00 +20°C° 0 mm 1 m/s 670 mmHg 78%
    03:00 +20°C° 0 mm 1 m/s 670 mmHg 80%
    04:00 +19°C° 0 mm 1 m/s 670 mmHg 82%
    05:00 +20°C° 0 mm 1 m/s 670 mmHg 81%
    06:00 +21°C° 0 mm 1 m/s 671 mmHg 79%
    07:00 +22°C° 0 mm 1 m/s 672 mmHg 77%
    08:00 +24°C° 0 mm 2 m/s 672 mmHg 70%
    09:00 +26°C° 0 mm 2 m/s 673 mmHg 62%
    10:00 +28°C° 0 mm 3 m/s 673 mmHg 55%
    11:00 +29°C° 0 mm 3 m/s 673 mmHg 50%
    12:00 +30°C° 0 mm 3 m/s 672 mmHg 45%
    13:00 +32°C° 0 mm 4 m/s 672 mmHg 40%
    14:00 +32°C° 0 mm 4 m/s 671 mmHg 42%
    15:00 +30°C° 0 mm 4 m/s 671 mmHg 43%
    16:00 +30°C° 0 mm 3 m/s 670 mmHg 44%
    17:00 +28°C° 0 mm 3 m/s 670 mmHg 52%
    18:00 +25°C° 0 mm 2 m/s 670 mmHg 60%
    19:00 +23°C° 0 mm 1 m/s 670 mmHg 68%
    20:00 +22°C° 0 mm 1 m/s 670 mmHg 68%
    21:00 +21°C° 0 mm 2 m/s 670 mmHg 68%
    22:00 +20°C° 0 mm 2 m/s 671 mmHg 68%
    23:00 +21°C° 0 mm 1 m/s 670 mmHg 70%
    Arată mai mult